• în Republica Moldova
  • Lista ţărilor
  • Pe 7 zile
  • Temperatura apei
  • Hartă satelitară
  • Meteo pe hartă
  • Widget-uri
  • user-avatar
    Intrare

    Meteo pe oră la Gjirokaster

    Astăzi, 23 Octombrie, Luni

    Timp Temperatura Precipitaţii Vânt Presiune Umiditate
    00:00 +8°C° 0 mm 3 m/s 649 mmHg 83%
    01:00 +7°C° 0 mm 4 m/s 649 mmHg 84%
    02:00 +7°C° 0,4 mm 4 m/s 648 mmHg 84%
    03:00 +7°C° 0,4 mm 4 m/s 648 mmHg 84%
    04:00 +7°C° 0,4 mm 4 m/s 647 mmHg 84%
    05:00 +7°C° 1,2 mm 4 m/s 647 mmHg 85%
    06:00 +8°C° 1,2 mm 3 m/s 647 mmHg 86%
    07:00 +8°C° 0 mm 4 m/s 646 mmHg 87%
    08:00 +8°C° 0,9 mm 4 m/s 646 mmHg 85%
    09:00 +10°C° 0,9 mm 3 m/s 646 mmHg 82%
    10:00 +10°C° 0,9 mm 3 m/s 646 mmHg 80%
    11:00 +11°C° 0,6 mm 3 m/s 646 mmHg 74%
    12:00 +11°C° 0,6 mm 3 m/s 645 mmHg 67%
    13:00 +12°C° 0,6 mm 4 m/s 645 mmHg 61%
    14:00 +11°C° 1,1 mm 3 m/s 644 mmHg 65%
    15:00 +10°C° 1,1 mm 3 m/s 644 mmHg 69%
    16:00 +9°C° 1,1 mm 3 m/s 643 mmHg 74%
    17:00 +8°C° 0,6 mm 3 m/s 643 mmHg 76%
    18:00 +7°C° 0,6 mm 3 m/s 643 mmHg 79%
    19:00 +5°C° 0,6 mm 3 m/s 643 mmHg 82%
    20:00 +5°C° 0,2 mm 3 m/s 642 mmHg 83%
    21:00 +4°C° 0,2 mm 3 m/s 642 mmHg 84%
    22:00 +4°C° 0,2 mm 3 m/s 642 mmHg 85%
    23:00 +4°C° 0,4 mm 3 m/s 642 mmHg 85%

    Mâine, 24 Octombrie, Marţi

    Timp Temperatura Precipitaţii Vânt Presiune Umiditate
    00:00 +3°C° 0,4 mm 3 m/s 642 mmHg 86%
    01:00 +3°C° 0,4 mm 3 m/s 642 mmHg 86%
    02:00 +3°C° 0,2 mm 3 m/s 642 mmHg 86%
    03:00 +3°C° 0,2 mm 3 m/s 642 mmHg 86%
    04:00 +2°C° 0,2 mm 3 m/s 641 mmHg 86%
    05:00 +2°C° 0,1 mm 3 m/s 641 mmHg 84%
    06:00 +3°C° 0,1 mm 3 m/s 642 mmHg 83%
    07:00 +3°C° 0,1 mm 3 m/s 642 mmHg 81%
    08:00 +4°C° 0 mm 3 m/s 642 mmHg 75%
    09:00 +5°C° 0 mm 3 m/s 643 mmHg 68%
    10:00 +8°C° 0 mm 3 m/s 643 mmHg 62%
    11:00 +8°C° 0,1 mm 3 m/s 643 mmHg 60%
    12:00 +7°C° 0,1 mm 4 m/s 643 mmHg 59%
    13:00 +8°C° 0,1 mm 4 m/s 643 mmHg 58%
    14:00 +7°C° 0,1 mm 4 m/s 643 mmHg 61%
    15:00 +7°C° 0,1 mm 4 m/s 643 mmHg 64%
    16:00 +6°C° 0,1 mm 5 m/s 643 mmHg 67%
    17:00 +5°C° 0,1 mm 4 m/s 644 mmHg 70%
    18:00 +5°C° 0,1 mm 4 m/s 644 mmHg 73%
    19:00 +4°C° 0,1 mm 3 m/s 644 mmHg 76%
    20:00 +3°C° 0 mm 3 m/s 645 mmHg 76%
    21:00 +3°C° 0 mm 3 m/s 645 mmHg 76%
    22:00 +3°C° 0 mm 3 m/s 645 mmHg 77%
    23:00 +2°C° 0 mm 3 m/s 646 mmHg 77%

    Poimâine, 25 Octombrie, Miercuri

    Timp Temperatura Precipitaţii Vânt Presiune Umiditate
    00:00 +2°C° 0 mm 3 m/s 646 mmHg 77%
    01:00 +2°C° 0 mm 3 m/s 646 mmHg 78%
    02:00 +2°C° 0 mm 3 m/s 646 mmHg 78%
    03:00 +2°C° 0 mm 3 m/s 647 mmHg 78%
    04:00 +2°C° 0 mm 3 m/s 647 mmHg 79%
    05:00 +2°C° 0 mm 3 m/s 647 mmHg 78%
    06:00 +2°C° 0 mm 3 m/s 648 mmHg 77%
    07:00 +3°C° 0 mm 3 m/s 648 mmHg 77%
    08:00 +5°C° 0 mm 3 m/s 649 mmHg 68%
    09:00 +8°C° 0 mm 3 m/s 650 mmHg 59%
    10:00 +11°C° 0 mm 3 m/s 651 mmHg 50%
    11:00 +11°C° 0 mm 3 m/s 652 mmHg 48%
    12:00 +12°C° 0 mm 3 m/s 652 mmHg 46%
    13:00 +13°C° 0 mm 3 m/s 652 mmHg 45%
    14:00 +12°C° 0 mm 3 m/s 652 mmHg 47%
    15:00 +12°C° 0 mm 3 m/s 652 mmHg 50%
    16:00 +11°C° 0 mm 3 m/s 653 mmHg 53%
    17:00 +10°C° 0 mm 3 m/s 653 mmHg 57%
    18:00 +8°C° 0 mm 3 m/s 653 mmHg 61%
    19:00 +7°C° 0 mm 3 m/s 654 mmHg 65%
    20:00 +7°C° 0 mm 3 m/s 654 mmHg 67%
    21:00 +5°C° 0 mm 3 m/s 654 mmHg 70%
    22:00 +5°C° 0 mm 3 m/s 655 mmHg 72%
    23:00 +4°C° 0 mm 3 m/s 655 mmHg 73%

    26 Octombrie, Joi

    Timp Temperatura Precipitaţii Vânt Presiune Umiditate
    00:00 +4°C° 0 mm 3 m/s 655 mmHg 74%
    01:00 +4°C° 0 mm 3 m/s 655 mmHg 76%
    02:00 +4°C° 0 mm 3 m/s 655 mmHg 76%
    03:00 +3°C° 0 mm 3 m/s 655 mmHg 76%
    04:00 +3°C° 0 mm 3 m/s 655 mmHg 77%
    05:00 +3°C° 0 mm 3 m/s 656 mmHg 76%
    06:00 +4°C° 0 mm 3 m/s 656 mmHg 75%
    07:00 +4°C° 0 mm 3 m/s 656 mmHg 73%
    08:00 +7°C° 0 mm 3 m/s 657 mmHg 65%
    09:00 +9°C° 0 mm 2 m/s 658 mmHg 57%
    10:00 +13°C° 0 mm 2 m/s 658 mmHg 48%
    11:00 +14°C° 0 mm 2 m/s 658 mmHg 46%
    12:00 +15°C° 0 mm 2 m/s 658 mmHg 43%
    13:00 +15°C° 0 mm 2 m/s 659 mmHg 41%
    14:00 +15°C° 0 mm 2 m/s 658 mmHg 45%
    15:00 +14°C° 0 mm 2 m/s 658 mmHg 48%
    16:00 +12°C° 0 mm 3 m/s 658 mmHg 52%
    17:00 +11°C° 0 mm 3 m/s 658 mmHg 56%
    18:00 +10°C° 0 mm 2 m/s 657 mmHg 60%
    19:00 +8°C° 0 mm 2 m/s 657 mmHg 64%
    20:00 +8°C° 0 mm 2 m/s 657 mmHg 64%
    21:00 +8°C° 0 mm 2 m/s 657 mmHg 64%
    22:00 +7°C° 0 mm 2 m/s 657 mmHg 64%
    23:00 +7°C° 0 mm 2 m/s 657 mmHg 64%

    27 Octombrie, Vineri

    Timp Temperatura Precipitaţii Vânt Presiune Umiditate
    00:00 +7°C° 0 mm 2 m/s 657 mmHg 64%
    01:00 +6°C° 0 mm 2 m/s 656 mmHg 63%
    02:00 +6°C° 0 mm 2 m/s 656 mmHg 63%
    03:00 +6°C° 0 mm 2 m/s 656 mmHg 63%
    04:00 +6°C° 0 mm 2 m/s 656 mmHg 62%
    05:00 +6°C° 0 mm 2 m/s 655 mmHg 61%
    06:00 +7°C° 0 mm 2 m/s 655 mmHg 60%
    07:00 +7°C° 0 mm 2 m/s 655 mmHg 59%
    08:00 +10°C° 0 mm 1 m/s 656 mmHg 53%
    09:00 +13°C° 0 mm 1 m/s 656 mmHg 46%
    10:00 +15°C° 0 mm 1 m/s 657 mmHg 40%
    11:00 +16°C° 0 mm 1 m/s 656 mmHg 39%
    12:00 +16°C° 0 mm 2 m/s 656 mmHg 38%
    13:00 +17°C° 0 mm 2 m/s 655 mmHg 37%
    14:00 +16°C° 0 mm 2 m/s 655 mmHg 42%
    15:00 +15°C° 0 mm 2 m/s 654 mmHg 47%
    16:00 +14°C° 0 mm 2 m/s 653 mmHg 53%
    17:00 +12°C° 0 mm 2 m/s 653 mmHg 58%
    18:00 +11°C° 0 mm 1 m/s 652 mmHg 63%
    19:00 +9°C° 0 mm 1 m/s 652 mmHg 68%
    20:00 +9°C° 0 mm 1 m/s 652 mmHg 68%
    21:00 +9°C° 0 mm 1 m/s 651 mmHg 69%
    22:00 +8°C° 0 mm 1 m/s 651 mmHg 69%
    23:00 +8°C° 0 mm 1 m/s 650 mmHg 70%

    28 Octombrie, Sâmbătă

    Timp Temperatura Precipitaţii Vânt Presiune Umiditate
    00:00 +8°C° 0 mm 1 m/s 650 mmHg 70%
    01:00 +7°C° 0 mm 1 m/s 649 mmHg 71%
    02:00 +7°C° 0 mm 1 m/s 649 mmHg 72%
    03:00 +7°C° 0 mm 1 m/s 649 mmHg 73%
    04:00 +6°C° 0 mm 1 m/s 648 mmHg 74%
    05:00 +7°C° 0 mm 1 m/s 648 mmHg 72%
    06:00 +7°C° 0 mm 1 m/s 648 mmHg 70%
    07:00 +7°C° 0 mm 1 m/s 648 mmHg 68%
    08:00 +9°C° 0 mm 1 m/s 648 mmHg 61%
    09:00 +11°C° 0 mm 1 m/s 649 mmHg 53%
    10:00 +12°C° 0 mm 1 m/s 649 mmHg 46%
    11:00 +13°C° 0 mm 1 m/s 649 mmHg 46%
    12:00 +13°C° 0 mm 1 m/s 649 mmHg 45%
    13:00 +13°C° 0 mm 1 m/s 648 mmHg 45%
    14:00 +13°C° 0 mm 2 m/s 648 mmHg 49%
    15:00 +12°C° 0 mm 2 m/s 648 mmHg 53%
    16:00 +10°C° 0 mm 2 m/s 648 mmHg 58%
    17:00 +9°C° 0 mm 2 m/s 648 mmHg 62%
    18:00 +8°C° 0 mm 2 m/s 648 mmHg 65%
    19:00 +8°C° 0 mm 2 m/s 648 mmHg 69%
    20:00 +7°C° 0 mm 2 m/s 648 mmHg 70%
    21:00 +7°C° 0 mm 2 m/s 648 mmHg 71%
    22:00 +7°C° 0 mm 3 m/s 648 mmHg 72%
    23:00 +5°C° 0,1 mm 3 m/s 648 mmHg 73%

    29 Octombrie, Duminică

    Timp Temperatura Precipitaţii Vânt Presiune Umiditate
    00:00 +5°C° 0,1 mm 3 m/s 647 mmHg 75%
    01:00 +4°C° 0,1 mm 3 m/s 647 mmHg 76%
    02:00 +4°C° 0,1 mm 3 m/s 647 mmHg 76%
    03:00 +3°C° 0,1 mm 4 m/s 647 mmHg 76%
    04:00 +3°C° 0,1 mm 4 m/s 647 mmHg 76%
    05:00 +3°C° 0,1 mm 4 m/s 647 mmHg 76%
    06:00 +1°C° 0,1 mm 4 m/s 647 mmHg 75%
    07:00 +1°C° 0,1 mm 4 m/s 647 mmHg 75%
    08:00 +2°C° 0 mm 5 m/s 647 mmHg 66%
    09:00 +5°C° 0 mm 5 m/s 648 mmHg 57%
    10:00 +6°C° 0 mm 5 m/s 648 mmHg 49%
    11:00 +6°C° 0 mm 5 m/s 648 mmHg 45%
    12:00 +7°C° 0 mm 6 m/s 648 mmHg 42%
    13:00 +7°C° 0 mm 6 m/s 648 mmHg 39%
    14:00 +7°C° 0 mm 6 m/s 648 mmHg 41%
    15:00 +5°C° 0 mm 6 m/s 648 mmHg 44%
    16:00 +5°C° 0 mm 6 m/s 648 mmHg 47%
    17:00 +3°C° 0 mm 5 m/s 649 mmHg 51%
    18:00 +2°C° 0 mm 5 m/s 649 mmHg 56%
    19:00 +1°C° 0 mm 4 m/s 649 mmHg 60%
    20:00 +1°C° 0 mm 4 m/s 649 mmHg 62%
    21:00 0°C° 0 mm 4 m/s 649 mmHg 63%
    22:00 0°C° 0 mm 4 m/s 650 mmHg 64%
    23:00 +1°C° 0 mm 3 m/s 649 mmHg 65%
    Arată mai mult